[[{"header":{"parameterUnit":"m.s-1","parameterCategory":1,"la1":30.2991,"la2":30.254,"lo1":-89.0895,"lo2":-89.0444,"dy":0.0017,"dx":0.0017,"nx":28,"ny":28,"refTime":"2024-07-05T03:00:00:Z","depth":0,"parameterNumber":2,"parameterNumberName":"U-component_of_WINDS"},"data":[0,0,0,0,0,0,0,0,0,0,0,0,0,0,0,0,0,0,0,0,0,0,0,0,0,0,0,0,0,0,0,0,0,0,0,0,0,0,0,0,0,0,0,0,0,0,0,0,0,0,0,0,0,0,0,0,0,0,2.3202,2.3203,0,2.331,2.3311,2.3312,2.3287,2.3285,2.3283,2.3281,2.3392,2.3396,2.3401,0,0,0,0,0,0,0,0,0,0,0,0,0,2.2975,2.2979,2.3202,2.3203,2.3205,2.331,2.3311,2.3313,2.3288,2.3285,2.3282,2.328,2.339,2.3396,2.3402,0,0,0,0,0,0,0,0,0,0,0,0,0,2.3077,2.2981,2.3202,2.3205,2.3206,2.3309,2.3311,2.3313,2.3288,2.3285,2.3282,2.3279,2.3388,2.3395,2.3402,2.3509,0,0,2.3425,2.3428,0,0,0,0,0,0,0,0,2.3072,2.3086,2.3203,2.3205,2.3206,2.3282,2.3272,2.3379,2.3289,2.3257,2.3281,2.3277,2.3358,2.3367,2.3394,2.3514,2.3519,2.3425,2.343,2.3433,2.3435,0,0,0,0,0,0,0,2.3065,2.3081,2.3245,2.3205,2.3207,2.3201,2.3212,2.3292,2.3323,2.3259,2.3258,2.3271,2.3358,2.3387,2.3397,2.3521,2.3425,2.3432,2.3436,2.3439,2.3736,2.374,0,0,0,0,0,0,2.3056,2.3075,2.3241,2.3248,2.313,2.3208,2.322,2.3261,2.3322,2.3329,2.3274,2.3269,2.3376,2.3388,2.34,2.3531,2.3433,2.344,2.3444,2.3733,2.3737,2.3741,0,0,0,0,0,0,2.3051,2.3071,2.3237,2.3161,2.3182,2.3215,2.3261,2.3265,2.3294,2.3333,2.3338,2.3298,2.3374,2.339,2.3483,2.3534,2.3443,2.345,2.3729,2.3734,2.3739,2.3791,0,0,0,0,0,0,2.3045,2.3069,2.311,2.3162,2.3186,2.3317,2.3264,2.3269,2.3306,2.3302,2.3357,2.3363,2.3373,2.3472,2.349,2.3542,2.3455,2.3724,2.3731,2.3737,2.3785,2.3798,2.3808,0,0,0,0,0,2.3037,2.312,2.3112,2.3132,2.3237,2.332,2.3334,2.3343,2.3311,2.3352,2.3378,2.3361,2.3526,2.3482,2.3502,2.3557,2.3721,2.3729,2.3737,2.378,2.3795,2.3808,0,0,0,0,0,0,2.3071,2.3126,2.3118,2.3221,2.3266,2.3316,2.3368,2.3359,2.3414,2.3408,2.3418,2.343,2.3525,2.3551,2.3501,2.3665,2.3619,2.3631,2.3645,2.366,2.3671,2.3662,2.3461,0,0,0,0,0,2.3091,2.3154,2.3198,2.3284,2.3308,2.3334,2.337,2.3374,2.3421,2.344,2.3473,2.3519,2.3581,2.3622,2.3681,2.3789,2.3801,2.3837,2.3849,2.3858,2.3869,2.3929,2.3946,2.3767,2.3767,2.3767,0,0,2.3132,2.317,2.3208,2.3292,2.3328,2.3393,2.335,2.342,2.3469,2.3451,2.354,2.3566,2.3619,2.372,2.3766,2.3744,2.3921,2.3869,2.3876,2.3881,2.3939,2.3956,2.3971,2.3773,2.3772,2.3771,0,0,2.324,2.3275,2.3351,2.3388,2.3442,2.346,2.3478,2.353,2.3547,2.3637,2.3626,2.3684,2.3791,2.3829,2.3863,2.3989,2.3976,2.4008,2.4068,2.4127,2.4141,2.4153,2.4199,2.4215,2.4018,2.4018,2.4018,0,2.3283,2.338,2.3391,2.3463,2.3501,2.3489,2.3566,2.3602,2.3673,2.37,2.3674,2.381,2.3844,2.3955,2.3986,2.4013,2.4035,2.4001,2.4138,2.4151,2.4163,2.4206,2.4223,2.4022,2.4021,2.4021,2.4021,0,2.3432,2.35,2.3555,2.3625,2.3669,2.3744,2.3766,2.381,2.3811,2.3831,2.3925,2.3966,2.4034,2.4061,2.4062,2.4173,2.4158,2.4135,2.4089,2.4183,2.4224,2.4241,2.4027,2.4025,2.4024,2.4023,0,0,2.3562,2.3639,2.3659,2.3691,2.3752,2.3805,2.388,2.3948,2.3985,2.4036,2.4099,2.4191,2.4172,2.421,2.4216,2.4267,2.4365,2.4239,2.424,2.4261,2.4491,2.4507,2.4526,2.4358,2.4361,2.4364,2.4486,0,2.3675,2.3806,2.3819,2.3937,2.4001,2.3993,2.4058,2.4103,2.4125,2.4183,2.4207,2.4272,2.4241,2.4264,2.4315,2.4343,2.4412,2.4334,2.4417,2.442,2.4404,2.4547,2.4564,2.4677,2.4502,2.4505,2.4507,0,2.3823,2.388,2.4004,2.4059,2.4086,2.4144,2.4208,2.4263,2.4315,2.4327,2.4372,2.4371,2.445,2.4402,2.451,2.4457,2.4492,2.4511,2.4516,2.4523,2.4468,2.4558,2.4713,2.473,2.4532,2.453,2.4528,0,2.3906,2.4013,2.4101,2.413,2.4195,2.4237,2.4266,2.4314,2.4355,2.4411,2.4438,2.4502,2.4538,2.4588,2.4606,2.4569,2.4714,2.4667,2.4727,2.4726,2.4756,2.4754,2.4919,2.478,2.478,2.478,2.4779,0,2.403,2.4107,2.414,2.4194,2.428,2.4295,2.4381,2.4408,2.4452,2.4512,2.4509,2.4566,2.4586,2.4646,2.4661,2.4749,2.4765,2.4777,2.478,2.4777,2.4776,2.48,2.4792,2.4784,2.4783,2.4782,2.4781,0,2.4136,2.4161,2.4257,2.4312,2.4328,2.4389,2.4436,2.449,2.4512,2.4588,2.4607,2.4642,2.4714,2.4737,2.4822,2.4832,2.4935,2.4931,2.4918,2.4918,2.4976,2.497,2.5162,2.5188,2.5033,2.5034,2.5035,0,2.4213,2.4272,2.4334,2.4375,2.4406,2.4471,2.4513,2.4531,2.4574,2.4639,2.4685,2.4756,2.4813,2.4928,2.4961,2.5027,2.5025,2.5088,2.5034,2.503,2.5026,2.5022,2.5028,2.5097,2.5098,2.51,2.5101,0,2.4347,2.4357,2.4418,2.4484,2.4534,2.4587,2.4637,2.4671,2.4696,2.4746,2.4819,2.4864,2.4953,2.5024,2.5092,2.5122,2.5116,2.5118,2.5135,2.5132,2.5122,2.5128,2.4944,2.5113,2.5111,2.5111,2.511,2.5109,2.4441,2.4494,2.4546,2.4614,2.4655,2.4703,2.4756,2.4786,2.4848,2.4921,2.4929,2.5008,2.5061,2.5151,2.5186,2.5249,2.5231,2.5256,2.5262,2.5268,2.5272,2.5113,2.5261,2.5261,2.526,2.526,2.526,0,2.4575,2.4609,2.4672,2.4744,2.4798,2.4789,2.4846,2.4891,2.4961,2.5011,2.5068,2.5153,2.5223,2.5263,2.5332,2.5375,2.5374,2.5392,2.5389,2.5396,2.5284,2.5262,2.5392,2.5392,2.5392,2.5392,2.5392,2.5392,2.4651,2.474,2.4757,2.4867,2.4901,2.4979,2.5012,2.5057,2.5097,2.5192,2.525,2.5276,2.5322,2.5396,2.5459,2.5469,2.5495,2.5515,2.5524,2.5418,2.5404,2.5391,2.537,2.5521,2.5521,2.5631,2.5632,2.5632]},{"header":{"parameterUnit":"m.s-1","parameterCategory":1,"la1":30.2991,"la2":30.254,"lo1":-89.0895,"lo2":-89.0444,"dy":0.0017,"dx":0.0017,"nx":28,"ny":28,"refTime":"2024-07-05T03:00:00:Z","depth":0,"parameterNumber":3,"parameterNumberName":"V-component_of_WINDS"},"data":[0,0,0,0,0,0,0,0,0,0,0,0,0,0,0,0,0,0,0,0,0,0,0,0,0,0,0,0,0,0,0,0,0,0,0,0,0,0,0,0,0,0,0,0,0,0,0,0,0,0,0,0,0,0,0,0,0,0,2.0706,2.0706,0,2.0765,2.0766,2.0767,2.0717,2.0715,2.0713,2.0711,2.0773,2.0776,2.078,0,0,0,0,0,0,0,0,0,0,0,0,0,2.0549,2.0552,2.0706,2.0706,2.0707,2.0765,2.0766,2.0767,2.0717,2.0715,2.0712,2.071,2.0772,2.0776,2.078,0,0,0,0,0,0,0,0,0,0,0,0,0,2.0614,2.0553,2.0706,2.0689,2.0689,2.0765,2.0766,2.0767,2.0718,2.0715,2.0712,2.0709,2.077,2.0776,2.0781,2.0877,0,0,2.0797,2.08,0,0,0,0,0,0,0,0,2.061,2.062,2.0691,2.0691,2.069,2.073,2.0733,2.0804,2.0719,2.0707,2.0711,2.0707,2.0761,2.0767,2.0785,2.088,2.0882,2.0798,2.0801,2.0804,2.0805,0,0,0,0,0,0,0,2.0606,2.0617,2.0729,2.0692,2.0691,2.0679,2.0685,2.0747,2.0751,2.0708,2.0704,2.0712,2.076,2.078,2.0787,2.0883,2.0798,2.0803,2.0806,2.0808,2.1057,2.106,0,0,0,0,0,0,2.0603,2.0613,2.0727,2.0731,2.0641,2.0685,2.0691,2.0721,2.075,2.0752,2.0714,2.0709,2.0773,2.078,2.0789,2.0901,2.0803,2.0809,2.0812,2.1054,2.1058,2.1062,0,0,0,0,0,0,2.06,2.0613,2.0725,2.0671,2.0684,2.0691,2.0724,2.0723,2.0743,2.0755,2.0756,2.0734,2.0771,2.0781,2.0855,2.0903,2.0811,2.0816,2.105,2.1055,2.106,2.1129,0,0,0,0,0,0,2.0595,2.0613,2.0649,2.0672,2.0688,2.0791,2.0727,2.0727,2.0752,2.0746,2.0774,2.0775,2.0769,2.0847,2.086,2.0909,2.082,2.1046,2.1052,2.1058,2.1122,2.1136,2.1147,0,0,0,0,0,2.059,2.0667,2.0651,2.0665,2.0733,2.0793,2.0802,2.0793,2.0757,2.0793,2.0801,2.0774,2.0896,2.0855,2.0869,2.092,2.1042,2.105,2.1058,2.1117,2.1133,2.1147,0,0,0,0,0,0,2.065,2.067,2.0653,2.074,2.0765,2.0785,2.0831,2.0811,2.0847,2.084,2.0827,2.0834,2.0911,2.0923,2.0878,2.1014,2.0963,2.0974,2.1003,2.1019,2.1031,2.1027,2.0825,0,0,0,0,0,2.0674,2.0721,2.0735,2.081,2.0824,2.0825,2.0851,2.0842,2.0868,2.0878,2.0891,2.0918,2.0961,2.0991,2.1032,2.1124,2.1128,2.1166,2.1178,2.1188,2.1198,2.1246,2.1262,2.1087,2.1086,2.1086,0,0,2.0723,2.0739,2.077,2.0823,2.0841,2.089,2.0835,2.0889,2.0925,2.0887,2.0957,2.0967,2.0996,2.1078,2.1116,2.1091,2.1247,2.1198,2.1206,2.121,2.1255,2.1272,2.1287,2.1092,2.1091,2.109,0,0,2.0837,2.0854,2.0918,2.0937,2.0966,2.0966,2.0981,2.1004,2.1009,2.1079,2.1051,2.1093,2.1169,2.119,2.1211,2.1331,2.1307,2.1344,2.1409,2.1456,2.147,2.1482,2.1524,2.1539,2.1354,2.1354,2.1354,0,2.0894,2.0966,2.0953,2.1009,2.1033,2.1,2.1064,2.1083,2.1124,2.1141,2.1113,2.1206,2.1223,2.131,2.1339,2.1357,2.1374,2.1341,2.1469,2.1481,2.1492,2.1532,2.1548,2.1358,2.1358,2.1357,2.1357,0,2.1035,2.1085,2.1133,2.1172,2.1201,2.1261,2.1257,2.1288,2.1276,2.1279,2.135,2.1369,2.1412,2.1432,2.1421,2.1517,2.15,2.1471,2.142,2.1514,2.1551,2.1566,2.1364,2.1363,2.1362,2.1361,0,0,2.119,2.1219,2.1237,2.1254,2.1282,2.1321,2.1378,2.142,2.1447,2.1475,2.1523,2.1587,2.1559,2.1583,2.1574,2.1615,2.1707,2.158,2.158,2.1602,2.1813,2.1835,2.1853,2.1692,2.1695,2.1697,2.181,0,2.1304,2.1404,2.1394,2.1489,2.1534,2.1502,2.1553,2.1575,2.1579,2.1618,2.1623,2.1668,2.1628,2.1642,2.1681,2.1688,2.1749,2.1679,2.1736,2.1738,2.1729,2.1872,2.1896,2.2002,2.1824,2.1827,2.1829,0,2.1451,2.1484,2.1583,2.1603,2.1622,2.1667,2.1704,2.1742,2.1766,2.1766,2.1791,2.1774,2.1832,2.1779,2.1858,2.181,2.1832,2.1839,2.1843,2.1848,2.1789,2.188,2.2036,2.2051,2.1852,2.185,2.1848,0,2.1553,2.1622,2.169,2.1706,2.173,2.1763,2.1774,2.1796,2.1821,2.1853,2.1869,2.1908,2.1929,2.1959,2.1953,2.1915,2.2032,2.198,2.2034,2.2034,2.206,2.2059,2.2221,2.2075,2.2075,2.2074,2.2074,0,2.1682,2.1744,2.1736,2.1778,2.1846,2.1833,2.1901,2.1909,2.1928,2.197,2.1945,2.1985,2.1975,2.2015,2.201,2.2075,2.2085,2.2086,2.2084,2.2088,2.2088,2.2103,2.2095,2.2079,2.2078,2.2077,2.2076,0,2.1808,2.1805,2.1877,2.1894,2.1899,2.1949,2.1963,2.2002,2.2003,2.2058,2.2069,2.2072,2.2117,2.2113,2.2165,2.2162,2.2242,2.2231,2.2234,2.2231,2.2285,2.228,2.2462,2.2485,2.2325,2.2326,2.2328,0,2.189,2.1937,2.1958,2.1985,2.1998,2.2041,2.2066,2.2055,2.2082,2.2113,2.2148,2.2191,2.2225,2.2299,2.2305,2.2343,2.2333,2.2394,2.2339,2.2341,2.2334,2.2331,2.2335,2.2406,2.2407,2.2409,2.241,0,2.2037,2.2033,2.207,2.2106,2.2137,2.2165,2.2191,2.2214,2.2205,2.2237,2.2282,2.2308,2.236,2.2403,2.2439,2.2451,2.2429,2.2427,2.2442,2.2447,2.2446,2.2446,2.2263,2.2423,2.2422,2.2421,2.242,2.242,2.2143,2.2183,2.2203,2.2245,2.2263,2.2287,2.2324,2.2329,2.2367,2.2408,2.2398,2.245,2.2471,2.2518,2.2533,2.2573,2.2551,2.2572,2.2577,2.2582,2.2588,2.2439,2.2579,2.2579,2.2579,2.2578,2.2578,0,2.2288,2.2299,2.2337,2.2373,2.2406,2.2381,2.2408,2.2437,2.2482,2.2504,2.2537,2.2589,2.263,2.2638,2.2677,2.2707,2.2698,2.2718,2.2715,2.2718,2.2606,2.259,2.2724,2.2724,2.2724,2.2724,2.2724,2.2724,2.2367,2.2432,2.243,2.2503,2.2513,2.2563,2.258,2.2602,2.2619,2.2678,2.2711,2.2716,2.2732,2.2772,2.2808,2.2809,2.2824,2.2848,2.2846,2.2741,2.2726,2.2712,2.2697,2.2851,2.2852,2.2954,2.2955,2.2956]}]]